timestamp,surface_pressure_avg,surface_temp_avg,battery_voltage,lat,long
2018-02-14 00:00:00+00:00,339.153,1.5,12.57,47.84626,-54.09684
2018-02-14 00:10:00+00:00,334.818,1.5,12.57,47.84626,-54.09684
2018-02-14 00:20:00+00:00,329.998,1.5,12.65,47.84626,-54.09684
2018-02-14 00:30:00+00:00,322.9846,1.5,12.65,47.84626,-54.09684
2018-02-14 00:40:00+00:00,313.3097,1.5,12.65,47.84626,-54.09684
2018-02-14 00:50:00+00:00,308.6663,1.5,12.65,47.84626,-54.09684
2018-02-14 01:00:00+00:00,304.2063,1.5,12.57,47.84626,-54.09684
2018-02-14 01:10:00+00:00,295.063,1.5,12.57,47.84626,-54.09684
2018-02-14 01:20:00+00:00,288.1564,1.5,12.65,47.84626,-54.09684
2018-02-14 01:30:00+00:00,285.0447,1.5,12.57,47.84626,-54.09684
2018-02-14 01:40:00+00:00,281.168,1.5,12.65,47.84626,-54.09684
2018-02-14 01:50:00+00:00,275.043,1.2,12.65,47.84626,-54.09684
2018-02-14 02:00:00+00:00,266.5297,0.9,12.57,47.84626,-54.09684
2018-02-14 02:10:00+00:00,262.4515,0.77,12.57,47.84626,-54.09684
2018-02-14 02:20:00+00:00,258.6147,0.7,12.57,47.84626,-54.09684
2018-02-14 02:30:00+00:00,251.3764,0.68,12.57,47.84626,-54.09684
2018-02-14 02:40:00+00:00,243.6314,0.6,12.57,47.84626,-54.09684
2018-02-14 02:50:00+00:00,242.3748,0.6,12.57,47.84626,-54.09684
2018-02-14 03:00:00+00:00,242.3081,0.6,12.57,47.84626,-54.09684
2018-02-14 03:10:00+00:00,238.7781,0.6,12.49,47.84626,-54.09684
2018-02-14 03:20:00+00:00,235.9498,0.61,12.57,47.84626,-54.09684
2018-02-14 03:30:00+00:00,234.078,0.67,12.57,47.84626,-54.09684
2018-02-14 03:40:00+00:00,232.8481,0.6,12.57,47.84626,-54.09684
2018-02-14 03:50:00+00:00,228.5348,0.85,12.57,47.84626,-54.09684
2018-02-14 04:00:00+00:00,220.5598,0.95,12.49,47.84626,-54.09684
2018-02-14 04:10:00+00:00,216.6998,1.0,12.49,47.84626,-54.09684
2018-02-14 04:20:00+00:00,214.4465,1.1,12.57,47.84626,-54.09684
2018-02-14 04:30:00+00:00,210.9931,1.1,12.57,47.84626,-54.09684
2018-02-14 04:40:00+00:00,205.8348,1.1,12.57,47.84626,-54.09684
2018-02-14 04:50:00+00:00,204.1348,1.19,12.57,47.84626,-54.09684
2018-02-14 05:00:00+00:00,206.3264,1.2,12.49,47.84626,-54.09684
2018-02-14 05:10:00+00:00,207.2998,1.3,12.49,47.84626,-54.09684
2018-02-14 05:20:00+00:00,207.0531,1.3,12.57,47.84626,-54.09684
2018-02-14 05:30:00+00:00,205.5514,1.4,12.57,47.84626,-54.09684
2018-02-14 05:40:00+00:00,207.2981,1.4,12.57,47.84626,-54.09684
2018-02-14 05:50:00+00:00,212.3248,1.4,12.57,47.84626,-54.09684
2018-02-14 06:00:00+00:00,216.1314,1.4,12.49,47.84626,-54.09684
2018-02-14 06:10:00+00:00,220.8814,1.4,12.49,47.84626,-54.09684
2018-02-14 06:20:00+00:00,224.9698,1.5,12.57,47.84626,-54.09684
2018-02-14 06:30:00+00:00,228.6964,1.55,12.57,47.84626,-54.09684
2018-02-14 06:40:00+00:00,230.4714,1.62,12.57,47.84626,-54.09684
2018-02-14 06:50:00+00:00,236.2697,1.7,12.57,47.84626,-54.09684
2018-02-14 07:00:00+00:00,241.3565,1.6,12.49,47.84626,-54.09684
2018-02-14 07:10:00+00:00,244.8081,1.5,12.49,47.84626,-54.09684
2018-02-14 07:20:00+00:00,254.6297,1.4,12.57,47.84626,-54.09684
2018-02-14 07:30:00+00:00,263.588,1.35,12.57,47.84626,-54.09684
2018-02-14 07:40:00+00:00,266.2448,1.3,12.57,47.84626,-54.09684
2018-02-14 07:50:00+00:00,272.5331,1.32,12.57,47.84626,-54.09684
2018-02-14 08:00:00+00:00,283.978,1.31,12.49,47.84626,-54.09684
2018-02-14 08:10:00+00:00,295.2547,1.3,12.41,47.84626,-54.09684
2018-02-14 08:20:00+00:00,298.3896,1.32,12.57,47.84626,-54.09684
2018-02-14 08:30:00+00:00,305.3063,1.37,12.49,47.84626,-54.09684
2018-02-14 08:40:00+00:00,307.6713,1.37,12.57,47.84626,-54.09684
2018-02-14 08:50:00+00:00,311.9297,1.39,12.57,47.84626,-54.09684
2018-02-14 09:00:00+00:00,315.1214,1.4,12.49,47.84626,-54.09684
2018-02-14 09:10:00+00:00,322.3913,1.47,12.41,47.84626,-54.09684
2018-02-14 09:20:00+00:00,327.278,1.51,12.49,47.84626,-54.09684
2018-02-14 09:30:00+00:00,335.2112,1.53,12.49,47.84626,-54.09684
2018-02-14 09:40:00+00:00,338.3913,1.55,12.57,47.84626,-54.09684
2018-02-14 09:50:00+00:00,339.9247,1.53,12.57,47.84626,-54.09684
2018-02-14 10:00:00+00:00,345.033,1.5,12.41,47.84626,-54.09684
2018-02-14 10:10:00+00:00,348.0046,1.4,12.41,47.84626,-54.09684
2018-02-14 10:20:00+00:00,344.833,1.32,12.49,47.84626,-54.09684
2018-02-14 10:30:00+00:00,344.7213,1.31,12.49,47.84626,-54.09684
2018-02-14 10:40:00+00:00,346.8563,1.3,12.49,47.84626,-54.09684
2018-02-14 10:50:00+00:00,343.8679,1.33,12.57,47.84626,-54.09684
2018-02-14 11:00:00+00:00,337.3346,1.37,12.49,47.84626,-54.09684
2018-02-14 11:10:00+00:00,337.6146,1.4,12.57,47.84626,-54.09684
2018-02-14 11:20:00+00:00,337.2964,1.49,12.97,47.84626,-54.09684
2018-02-14 11:30:00+00:00,333.2864,1.5,13.29,47.84626,-54.09684
2018-02-14 11:40:00+00:00,330.7347,1.53,13.53,47.84626,-54.09684
2018-02-14 11:50:00+00:00,330.1663,1.59,13.21,47.84626,-54.09684
2018-02-14 12:00:00+00:00,324.0113,1.5,12.89,47.84626,-54.09684
2018-02-14 12:10:00+00:00,319.8962,1.31,12.81,47.84626,-54.09684
2018-02-14 12:20:00+00:00,324.668,1.3,12.89,47.84626,-54.09684
2018-02-14 12:30:00+00:00,322.4996,1.1,12.97,47.84626,-54.09684
2018-02-14 12:40:00+00:00,314.5447,1.0,14.24,47.84626,-54.09684
2018-02-14 12:50:00+00:00,315.328,1.0,14.24,47.84626,-54.09684
2018-02-14 13:00:00+00:00,316.943,1.06,14.0,47.84626,-54.09684
2018-02-14 13:10:00+00:00,306.8163,0.97,14.24,47.84626,-54.09684
2018-02-14 13:20:00+00:00,292.7747,1.0,13.68,47.84626,-54.09684
2018-02-14 13:30:00+00:00,293.5714,1.04,13.6,47.84626,-54.09684
2018-02-14 13:40:00+00:00,294.613,1.08,13.44,47.84626,-54.09684
2018-02-14 13:50:00+00:00,285.8281,1.39,13.13,47.84626,-54.09684
2018-02-14 14:00:00+00:00,276.8564,1.5,13.29,47.84626,-54.09684
2018-02-14 14:10:00+00:00,277.3164,1.4,13.13,47.84626,-54.09684
2018-02-14 14:20:00+00:00,269.7814,1.2,13.29,47.84626,-54.09684
2018-02-14 14:30:00+00:00,252.8814,1.15,13.05,47.84626,-54.09684
2018-02-14 14:40:00+00:00,243.6098,1.2,13.05,47.84626,-54.09684
2018-02-14 14:50:00+00:00,244.1648,1.49,12.97,47.84626,-54.09684
2018-02-14 15:00:00+00:00,236.6598,1.5,12.97,47.84626,-54.09684
2018-02-14 15:10:00+00:00,224.4364,1.35,12.97,47.84626,-54.09684
2018-02-14 15:20:00+00:00,219.2798,1.46,12.97,47.84626,-54.09684
2018-02-14 15:30:00+00:00,212.4948,1.6,12.89,47.84626,-54.09684
2018-02-14 15:40:00+00:00,200.3181,1.64,12.97,47.84626,-54.09684
2018-02-14 15:50:00+00:00,194.4065,1.6,12.97,47.84626,-54.09684
2018-02-14 16:00:00+00:00,201.7765,1.6,12.89,47.84626,-54.09684
2018-02-14 16:10:00+00:00,200.0515,1.6,12.89,47.84626,-54.09684
2018-02-14 16:20:00+00:00,190.3615,1.6,13.05,47.84626,-54.09684
2018-02-14 16:30:00+00:00,187.7098,1.7,13.05,47.84626,-54.09684
2018-02-14 16:40:00+00:00,185.7265,1.75,13.05,47.84626,-54.09684
2018-02-14 16:50:00+00:00,179.3315,1.79,13.05,47.84626,-54.09684
2018-02-14 17:00:00+00:00,177.6165,1.7,12.89,47.84626,-54.09684
2018-02-14 17:10:00+00:00,175.7481,1.7,12.89,47.84626,-54.09684
2018-02-14 17:20:00+00:00,166.5115,1.7,12.97,47.84626,-54.09684
2018-02-14 17:30:00+00:00,165.5248,1.7,12.89,47.84626,-54.09684
2018-02-14 17:40:00+00:00,169.4332,1.66,12.89,47.84626,-54.09684
2018-02-14 17:50:00+00:00,167.7431,1.6,12.89,47.84626,-54.09684
2018-02-14 18:00:00+00:00,168.0948,1.6,12.81,47.84626,-54.09684
2018-02-14 18:10:00+00:00,170.9898,1.54,12.81,47.84626,-54.09684
2018-02-14 18:20:00+00:00,172.3482,1.5,12.81,47.84626,-54.09684
2018-02-14 18:30:00+00:00,171.4098,1.5,12.81,47.84626,-54.09684
2018-02-14 18:40:00+00:00,175.4715,1.5,12.81,47.84626,-54.09684
2018-02-14 18:50:00+00:00,182.7931,1.5,12.81,47.84626,-54.09684
2018-02-14 19:00:00+00:00,188.6148,1.4,12.73,47.84626,-54.09684
2018-02-14 19:10:00+00:00,194.4331,1.3,12.73,47.84626,-54.09684
2018-02-14 19:20:00+00:00,200.0981,1.2,12.81,47.84626,-54.09684
2018-02-14 19:30:00+00:00,206.0815,1.2,12.81,47.84626,-54.09684
2018-02-14 19:40:00+00:00,212.8148,1.1,12.81,47.84626,-54.09684
2018-02-14 19:50:00+00:00,217.6448,1.1,12.81,47.84626,-54.09684
2018-02-14 20:00:00+00:00,222.3997,1.0,12.73,47.84626,-54.09684
2018-02-14 20:10:00+00:00,231.7798,1.0,12.73,47.84626,-54.09684
2018-02-14 20:20:00+00:00,240.8231,1.0,12.73,47.84626,-54.09684
2018-02-14 20:30:00+00:00,246.0931,0.9,12.73,47.84626,-54.09684
2018-02-14 20:40:00+00:00,248.7431,0.9,12.73,47.84626,-54.09684
2018-02-14 20:50:00+00:00,255.9597,0.84,12.73,47.84626,-54.09684
2018-02-14 21:00:00+00:00,264.4964,0.83,12.65,47.84626,-54.09684
2018-02-14 21:10:00+00:00,266.4647,0.8,12.65,47.84626,-54.09684
2018-02-14 21:20:00+00:00,267.8214,0.8,12.73,47.84626,-54.09684
2018-02-14 21:30:00+00:00,278.4047,0.8,12.73,47.84626,-54.09684
2018-02-14 21:40:00+00:00,285.7514,0.8,12.73,47.84626,-54.09684
2018-02-14 21:50:00+00:00,282.733,0.8,12.73,47.84626,-54.09684
2018-02-14 22:00:00+00:00,284.7464,0.8,12.65,47.84626,-54.09684
2018-02-14 22:10:00+00:00,296.113,0.8,12.65,47.84626,-54.09684
2018-02-14 22:20:00+00:00,299.3213,0.8,12.73,47.84626,-54.09684
2018-02-14 22:30:00+00:00,296.4297,0.8,12.73,47.84626,-54.09684
2018-02-14 22:40:00+00:00,298.4481,0.8,12.73,47.84626,-54.09684
2018-02-14 22:50:00+00:00,303.173,0.88,12.73,47.84626,-54.09684
2018-02-14 23:00:00+00:00,303.0697,0.9,12.65,47.84626,-54.09684
2018-02-14 23:10:00+00:00,302.6614,0.83,12.65,47.84626,-54.09684
2018-02-14 23:20:00+00:00,303.9414,0.85,12.65,47.84626,-54.09684
2018-02-14 23:30:00+00:00,304.2047,0.89,12.65,47.84626,-54.09684
2018-02-14 23:40:00+00:00,303.3929,0.88,12.73,47.84626,-54.09684
2018-02-14 23:50:00+00:00,305.2347,0.84,12.73,47.84626,-54.09684
